APG715 RPLL-RPVK

Flight info

Callsign APG715
Flight time 0h 50m
Altitude 27000
Route VERDE2R VERDE W24 TAPER TAPER1A
Aircraft A320/M-SDE3FGHIRWY/LB1

Departure

Time 2026-04-25 10:54
Airport Ninoy Aquino International Airport (RPLL)

Arrival

Time 2026-04-25 11:44
Airport Kalibo International Airport (RPVK)
Time Latitude Longitude Altitude Speed Heading
2026-04-25 10:24 14.50884 121.01368 69 ft 0 kts 329°
2026-04-25 10:40 14.50883 121.01369 68 ft 2 kts 329°
2026-04-25 10:40 14.50864 121.01380 59 ft 3 kts 330°
2026-04-25 10:40 14.50848 121.01390 65 ft 3 kts 330°
2026-04-25 10:40 14.50834 121.01398 65 ft 3 kts 329°
2026-04-25 10:41 14.50813 121.01414 59 ft 3 kts 280°
2026-04-25 10:41 14.50817 121.01435 63 ft 3 kts 240°
2026-04-25 10:41 14.50811 121.01425 63 ft 3 kts 240°
2026-04-25 10:41 14.50800 121.01405 61 ft 3 kts 240°
2026-04-25 10:42 14.50788 121.01384 66 ft 3 kts 240°
2026-04-25 10:42 14.50779 121.01367 63 ft 0 kts 240°
2026-04-25 10:47 14.50775 121.01360 62 ft 3 kts 240°
2026-04-25 10:47 14.50759 121.01331 63 ft 6 kts 240°
2026-04-25 10:48 14.50719 121.01312 69 ft 7 kts 169°
2026-04-25 10:48 14.50675 121.01316 62 ft 6 kts 202°
2026-04-25 10:48 14.50641 121.01269 63 ft 9 kts 240°
2026-04-25 10:48 14.50611 121.01217 66 ft 8 kts 239°
2026-04-25 10:49 14.50585 121.01171 67 ft 8 kts 240°
2026-04-25 10:49 14.50560 121.01124 65 ft 13 kts 240°
2026-04-25 10:49 14.50482 121.00986 59 ft 19 kts 240°
2026-04-25 10:49 14.50415 121.00865 63 ft 20 kts 240°
2026-04-25 10:50 14.50345 121.00737 62 ft 21 kts 240°
2026-04-25 10:50 14.50270 121.00603 58 ft 22 kts 240°
2026-04-25 10:50 14.50191 121.00462 59 ft 22 kts 240°
2026-04-25 10:50 14.50114 121.00324 61 ft 22 kts 240°
2026-04-25 10:51 14.50043 121.00196 68 ft 17 kts 240°
2026-04-25 10:51 14.49988 121.00096 66 ft 15 kts 240°
2026-04-25 10:51 14.49940 121.00011 64 ft 12 kts 240°
2026-04-25 10:51 14.49888 120.99964 69 ft 9 kts 182°
2026-04-25 10:52 14.49831 120.99991 66 ft 10 kts 151°
2026-04-25 10:52 14.49808 121.00048 60 ft 8 kts 69°
2026-04-25 10:52 14.49818 121.00066 64 ft 0 kts 59°
2026-04-25 10:53 14.49827 121.00083 69 ft 15 kts 59°
2026-04-25 10:53 14.50016 121.00422 61 ft 89 kts 60°
2026-04-25 10:53 14.50422 121.01153 69 ft 143 kts 60°
2026-04-25 10:53 14.50982 121.02146 318 ft 166 kts 63°
2026-04-25 10:54 14.51560 121.03185 1031 ft 167 kts 63°
2026-04-25 10:54 14.51941 121.03873 1529 ft 165 kts 63°
2026-04-25 10:54 14.52701 121.05247 2383 ft 164 kts 63°
2026-04-25 10:54 14.53258 121.06256 2958 ft 164 kts 62°
2026-04-25 10:55 14.53829 121.07290 3398 ft 173 kts 62°
2026-04-25 10:55 14.54462 121.08435 3610 ft 194 kts 62°
2026-04-25 10:55 14.55173 121.09720 3775 ft 218 kts 62°
2026-04-25 10:55 14.55826 121.11206 4168 ft 232 kts 76°
2026-04-25 10:56 14.56003 121.12877 4834 ft 237 kts 95°
2026-04-25 10:56 14.55636 121.14542 5529 ft 240 kts 114°
2026-04-25 10:56 14.54738 121.16001 6242 ft 244 kts 133°
2026-04-25 10:56 14.53544 121.17237 6922 ft 248 kts 135°
2026-04-25 10:57 14.52314 121.18503 7606 ft 251 kts 135°
2026-04-25 10:57 14.51067 121.19794 8297 ft 256 kts 135°
2026-04-25 10:57 14.49802 121.21107 8990 ft 259 kts 136°
2026-04-25 10:57 14.48498 121.22409 9674 ft 262 kts 144°
2026-04-25 10:58 14.47467 121.23065 10084 ft 263 kts 159°
2026-04-25 10:58 14.45702 121.23505 10728 ft 261 kts 180°
2026-04-25 10:58 14.43912 121.23257 11379 ft 261 kts 200°
2026-04-25 10:58 14.41890 121.21949 12228 ft 262 kts 227°
2026-04-25 10:59 14.40663 121.20542 12866 ft 265 kts 228°
2026-04-25 10:59 14.39830 121.19581 13284 ft 267 kts 227°
2026-04-25 10:59 14.38598 121.18161 13885 ft 270 kts 227°
2026-04-25 10:59 14.37334 121.16709 14435 ft 273 kts 227°
2026-04-25 11:00 14.36055 121.15245 14987 ft 275 kts 227°
2026-04-25 11:00 14.34765 121.13771 15523 ft 278 kts 228°
2026-04-25 11:00 14.33460 121.12283 16055 ft 281 kts 228°
2026-04-25 11:00 14.32143 121.10780 16575 ft 284 kts 228°
2026-04-25 11:01 14.30812 121.09258 17104 ft 286 kts 229°
2026-04-25 11:01 14.29468 121.07720 17633 ft 289 kts 229°
2026-04-25 11:01 14.28063 121.06251 18142 ft 293 kts 222°
2026-04-25 11:01 14.26436 121.04973 18597 ft 296 kts 215°
2026-04-25 11:02 14.24732 121.03774 19069 ft 297 kts 215°
2026-04-25 11:02 14.23020 121.02569 19544 ft 299 kts 215°
2026-04-25 11:02 14.21300 121.01359 20026 ft 300 kts 215°
2026-04-25 11:02 14.19572 121.00143 20505 ft 301 kts 214°
2026-04-25 11:03 14.17837 120.98923 20989 ft 303 kts 214°
2026-04-25 11:03 14.16087 120.97692 21449 ft 305 kts 214°
2026-04-25 11:03 14.14332 120.96453 21932 ft 307 kts 214°
2026-04-25 11:03 14.12559 120.95202 22380 ft 310 kts 214°
2026-04-25 11:04 14.10767 120.93940 22832 ft 312 kts 214°
2026-04-25 11:04 14.08957 120.92688 23282 ft 315 kts 211°
2026-04-25 11:04 14.06999 120.91659 23679 ft 317 kts 202°
2026-04-25 11:04 14.05616 120.91149 23927 ft 319 kts 196°
2026-04-25 11:05 14.02714 120.90577 24395 ft 323 kts 185°
2026-04-25 11:05 14.00455 120.90559 24746 ft 326 kts 176°
2026-04-25 11:05 13.98201 120.90913 25089 ft 330 kts 167°
2026-04-25 11:05 13.95962 120.91496 25429 ft 333 kts 167°
2026-04-25 11:06 13.93705 120.92079 25773 ft 335 kts 167°
2026-04-25 11:06 13.91427 120.92665 26123 ft 338 kts 167°
2026-04-25 11:06 13.89139 120.93251 26464 ft 341 kts 167°
2026-04-25 11:06 13.86825 120.93843 26784 ft 344 kts 167°
2026-04-25 11:07 13.84468 120.94444 26915 ft 354 kts 167°
2026-04-25 11:07 13.82026 120.95068 26936 ft 368 kts 167°
2026-04-25 11:07 13.79525 120.95709 26937 ft 381 kts 167°
2026-04-25 11:07 13.76900 120.96381 26936 ft 394 kts 167°
2026-04-25 11:08 13.74200 120.97071 26937 ft 406 kts 167°
2026-04-25 11:08 13.71416 120.97782 26934 ft 417 kts 167°
2026-04-25 11:08 13.69529 120.98265 26937 ft 425 kts 167°
2026-04-25 11:08 13.67440 120.98805 26939 ft 430 kts 167°
2026-04-25 11:09 13.64514 120.99559 26946 ft 434 kts 167°
2026-04-25 11:09 13.61575 121.00313 26941 ft 435 kts 167°
2026-04-25 11:09 13.58632 121.01065 26940 ft 436 kts 167°
2026-04-25 11:09 13.55685 121.01816 26947 ft 436 kts 167°
2026-04-25 11:10 13.52741 121.02585 26948 ft 436 kts 164°
2026-04-25 11:10 13.50837 121.03279 26944 ft 437 kts 158°
2026-04-25 11:10 13.47319 121.05303 26948 ft 438 kts 146°
2026-04-25 11:10 13.44806 121.07086 26947 ft 438 kts 146°
2026-04-25 11:11 13.42285 121.08866 26951 ft 438 kts 146°
2026-04-25 11:11 13.39764 121.10640 26950 ft 438 kts 147°
2026-04-25 11:11 13.37243 121.12412 26945 ft 438 kts 147°
2026-04-25 11:11 13.34728 121.14177 26952 ft 438 kts 147°
2026-04-25 11:12 13.32206 121.15946 26947 ft 438 kts 147°
2026-04-25 11:12 13.29719 121.17690 26941 ft 439 kts 147°
2026-04-25 11:12 13.27190 121.19464 26953 ft 439 kts 147°
2026-04-25 11:12 13.24664 121.21233 26949 ft 439 kts 147°
2026-04-25 11:13 13.22140 121.23000 26946 ft 439 kts 147°
2026-04-25 11:13 13.19614 121.24770 26952 ft 439 kts 147°
2026-04-25 11:13 13.17089 121.26539 26955 ft 439 kts 147°
2026-04-25 11:13 13.14596 121.28286 26958 ft 439 kts 147°
2026-04-25 11:14 13.12070 121.30056 26956 ft 439 kts 147°
2026-04-25 11:14 13.09543 121.31826 26955 ft 439 kts 147°
2026-04-25 11:14 13.07020 121.33593 26954 ft 439 kts 147°
2026-04-25 11:14 13.04496 121.35362 26956 ft 439 kts 147°
2026-04-25 11:15 13.01991 121.37115 26953 ft 439 kts 147°
2026-04-25 11:15 12.99464 121.38882 26950 ft 439 kts 147°
2026-04-25 11:15 12.96937 121.40645 26953 ft 439 kts 147°
2026-04-25 11:15 12.94412 121.42409 26940 ft 438 kts 147°
2026-04-25 11:16 12.89373 121.45940 26938 ft 438 kts 146°
2026-04-25 11:16 12.86853 121.47705 26933 ft 438 kts 147°
2026-04-25 11:16 12.84331 121.49470 26930 ft 438 kts 147°
2026-04-25 11:17 12.81808 121.51232 26933 ft 438 kts 147°
2026-04-25 11:17 12.79321 121.52970 26930 ft 438 kts 147°
2026-04-25 11:17 12.76798 121.54735 26927 ft 438 kts 147°
2026-04-25 11:17 12.74281 121.56491 26925 ft 438 kts 147°
2026-04-25 11:18 12.71757 121.58247 26923 ft 438 kts 147°
2026-04-25 11:18 12.69233 121.60003 26922 ft 438 kts 147°
2026-04-25 11:18 12.66713 121.61757 26921 ft 438 kts 147°
2026-04-25 11:18 12.64195 121.63513 26919 ft 438 kts 147°
2026-04-25 11:19 12.61701 121.65253 26916 ft 438 kts 147°
2026-04-25 11:19 12.59180 121.67011 26917 ft 438 kts 147°
2026-04-25 11:19 12.56658 121.68772 26915 ft 439 kts 147°
2026-04-25 11:19 12.54132 121.70533 26925 ft 439 kts 147°
2026-04-25 11:20 12.51601 121.72294 26918 ft 438 kts 147°
2026-04-25 11:20 12.49075 121.74051 26916 ft 438 kts 147°
2026-04-25 11:20 12.46546 121.75812 26916 ft 438 kts 147°
2026-04-25 11:20 12.44024 121.77569 26920 ft 438 kts 147°
2026-04-25 11:21 12.41535 121.79301 26921 ft 438 kts 147°
2026-04-25 11:21 12.39004 121.81060 26926 ft 438 kts 147°
2026-04-25 11:21 12.36473 121.82823 26915 ft 439 kts 146°
2026-04-25 11:21 12.34002 121.84657 26916 ft 439 kts 143°
2026-04-25 11:22 12.31591 121.86580 26917 ft 439 kts 142°
2026-04-25 11:22 12.30020 121.87883 26916 ft 439 kts 141°
2026-04-25 11:22 12.26890 121.90517 26917 ft 439 kts 141°
2026-04-25 11:22 12.24543 121.92486 26715 ft 430 kts 141°
2026-04-25 11:23 12.22238 121.94398 26472 ft 419 kts 142°
2026-04-25 11:23 12.20004 121.96225 26236 ft 408 kts 142°
2026-04-25 11:23 12.17800 121.98009 26005 ft 398 kts 142°
2026-04-25 11:23 12.15677 121.99720 25769 ft 389 kts 142°
2026-04-25 11:24 12.13573 122.01415 25539 ft 382 kts 142°
2026-04-25 11:24 12.11495 122.03093 25309 ft 378 kts 142°
2026-04-25 11:24 12.09485 122.04826 25080 ft 377 kts 135°
2026-04-25 11:24 12.07822 122.06875 24830 ft 373 kts 124°
2026-04-25 11:25 12.06547 122.09187 24409 ft 372 kts 117°
2026-04-25 11:25 12.05390 122.11515 23961 ft 371 kts 117°
2026-04-25 11:25 12.04221 122.13868 23513 ft 370 kts 117°
2026-04-25 11:25 12.03060 122.16203 23056 ft 368 kts 117°
2026-04-25 11:26 12.01907 122.18520 22644 ft 364 kts 117°
2026-04-25 11:26 12.00761 122.20822 22218 ft 361 kts 117°
2026-04-25 11:26 11.99622 122.23106 21817 ft 359 kts 117°
2026-04-25 11:26 11.98488 122.25376 21394 ft 357 kts 117°
2026-04-25 11:27 11.97359 122.27631 20980 ft 355 kts 117°
2026-04-25 11:27 11.96237 122.29871 20562 ft 353 kts 117°
2026-04-25 11:27 11.95119 122.32104 20162 ft 351 kts 117°
2026-04-25 11:27 11.94385 122.33566 19960 ft 347 kts 117°
2026-04-25 11:28 11.92930 122.36471 19199 ft 339 kts 116°
2026-04-25 11:28 11.91875 122.38579 18779 ft 338 kts 116°
2026-04-25 11:28 11.90803 122.40725 18343 ft 339 kts 116°
2026-04-25 11:28 11.89724 122.42880 17870 ft 341 kts 117°
2026-04-25 11:29 11.88585 122.44993 17395 ft 336 kts 120°
2026-04-25 11:29 11.87402 122.47012 16961 ft 326 kts 121°
2026-04-25 11:29 11.86219 122.48951 16520 ft 317 kts 123°
2026-04-25 11:29 11.84761 122.50592 16104 ft 309 kts 142°
2026-04-25 11:30 11.82939 122.51637 15701 ft 302 kts 160°
2026-04-25 11:30 11.80904 122.52068 15310 ft 295 kts 178°
2026-04-25 11:30 11.78880 122.51862 14924 ft 289 kts 193°
2026-04-25 11:30 11.76945 122.51383 14544 ft 284 kts 193°
2026-04-25 11:31 11.75031 122.50909 14170 ft 284 kts 193°
2026-04-25 11:31 11.73096 122.50431 13786 ft 288 kts 193°
2026-04-25 11:31 11.71144 122.49952 13355 ft 286 kts 193°
2026-04-25 11:31 11.69253 122.49490 12963 ft 280 kts 193°
2026-04-25 11:32 11.67367 122.49030 12631 ft 278 kts 193°
2026-04-25 11:32 11.65483 122.48569 12277 ft 279 kts 192°
2026-04-25 11:32 11.63579 122.48103 11884 ft 283 kts 192°
2026-04-25 11:32 11.61651 122.47629 11466 ft 284 kts 192°
2026-04-25 11:33 11.59750 122.47163 11074 ft 278 kts 192°
2026-04-25 11:33 11.57892 122.46705 10684 ft 272 kts 192°
2026-04-25 11:33 11.56062 122.46255 10295 ft 270 kts 192°
2026-04-25 11:33 11.54244 122.45811 9901 ft 274 kts 192°
2026-04-25 11:34 11.52400 122.45360 9465 ft 270 kts 191°
2026-04-25 11:34 11.50597 122.44916 9069 ft 263 kts 191°
2026-04-25 11:34 11.48843 122.44485 8677 ft 256 kts 191°
2026-04-25 11:34 11.47128 122.44062 8295 ft 251 kts 191°
2026-04-25 11:35 11.45439 122.43648 7911 ft 247 kts 191°
2026-04-25 11:35 11.43774 122.43239 7522 ft 244 kts 191°
2026-04-25 11:35 11.42177 122.42697 7138 ft 243 kts 208°
2026-04-25 11:35 11.40946 122.41525 6767 ft 245 kts 237°
2026-04-25 11:36 11.40370 122.39928 6370 ft 245 kts 264°
2026-04-25 11:36 11.40570 122.38220 5924 ft 244 kts 292°
2026-04-25 11:36 11.41201 122.36621 5490 ft 243 kts 293°
2026-04-25 11:36 11.41828 122.35025 5071 ft 243 kts 293°
2026-04-25 11:37 11.42454 122.33423 4638 ft 243 kts 293°
2026-04-25 11:37 11.43080 122.31816 4195 ft 245 kts 293°
2026-04-25 11:37 11.43782 122.30238 3743 ft 243 kts 306°
2026-04-25 11:37 11.44949 122.29017 3323 ft 237 kts 331°
2026-04-25 11:38 11.46379 122.28387 3249 ft 220 kts 351°
2026-04-25 11:38 11.47848 122.28046 3135 ft 213 kts 351°
2026-04-25 11:38 11.49287 122.27709 3016 ft 211 kts 351°
2026-04-25 11:38 11.50714 122.27374 2928 ft 208 kts 351°
2026-04-25 11:39 11.52086 122.27059 2812 ft 196 kts 356°
2026-04-25 11:39 11.53398 122.27021 2695 ft 182 kts
2026-04-25 11:39 11.54634 122.27108 2594 ft 173 kts
2026-04-25 11:39 11.55800 122.27186 2496 ft 163 kts
2026-04-25 11:40 11.56916 122.27261 2413 ft 158 kts
2026-04-25 11:40 11.58002 122.27366 2334 ft 155 kts 16°
2026-04-25 11:40 11.58685 122.27560 2284 ft 152 kts 25°
2026-04-25 11:40 11.59873 122.28252 2176 ft 147 kts 43°
2026-04-25 11:41 11.60582 122.28985 2112 ft 145 kts 52°
2026-04-25 11:41 11.61239 122.29753 1899 ft 142 kts 51°
2026-04-25 11:41 11.61886 122.30505 1692 ft 139 kts 51°
2026-04-25 11:41 11.62525 122.31245 1490 ft 138 kts 50°
2026-04-25 11:42 11.62946 122.31734 1368 ft 138 kts 51°
2026-04-25 11:42 11.63791 122.32714 1125 ft 138 kts 51°
2026-04-25 11:42 11.64427 122.33452 926 ft 139 kts 50°
2026-04-25 11:42 11.65065 122.34200 723 ft 141 kts 49°
2026-04-25 11:43 11.65718 122.34941 511 ft 140 kts 50°
2026-04-25 11:43 11.66349 122.35689 331 ft 139 kts 48°
2026-04-25 11:43 11.66773 122.36179 205 ft 138 kts 49°
2026-04-25 11:43 11.67595 122.37146 20 ft 123 kts 49°
2026-04-25 11:44 11.67893 122.37491 20 ft 69 kts 49°
2026-04-25 11:44 11.68074 122.37702 19 ft 31 kts 49°
2026-04-25 11:44 11.68260 122.37917 19 ft 24 kts 48°
2026-04-25 11:44 11.68325 122.37992 18 ft 20 kts 49°
2026-04-25 11:45 11.68397 122.38076 19 ft 12 kts 48°
2026-04-25 11:45 11.68458 122.38138 19 ft 10 kts 24°
2026-04-25 11:45 11.68495 122.38120 19 ft 5 kts 324°
2026-04-25 11:45 11.68517 122.38114 22 ft 2 kts 348°
2026-04-25 11:46 11.68531 122.38111 19 ft 1 kts 349°
2026-04-25 11:46 11.68537 122.38110 20 ft 0 kts 349°